Flag for India Weather past 2 weeks in Tiruvarur, Tamil Nadu, India

Now
79 °F

Passing clouds.


Feels Like: 83 °F
Forecast: 76 / 89 °F
Wind: No wind

Location: Tiruchchirapalli

Current Time: Oct 25, 2014 at 6:57:44 AM

Latest Report: Oct 25, 2014 at 6:10 AM


Visibility: 2 mi

Pressure: 29.86 "Hg

Humidity: 94%

Dew point: 77 °F

Location of TiruvarurLocation

Historic Weather in Tiruvarur — Graph

°F

Tiruvarur temperature yesterday

Maximum temperature yesterday: 90 °F (at 4:10 PM)
Minimum temperature yesterday: 75 °F (at 1:10 AM)
Average temperature yesterday: 81 °F

Past Weeks' High & Low Weather Summary

 TemperatureHumidityPressure
High99 °F (Oct 12, 3:10 PM)100% (Oct 17, 9:40 PM)29.98 "Hg (Oct 17, 9:40 PM)
Low75 °F (Oct 17, 9:40 PM)42% (Oct 14, 2:10 PM)29.62 "Hg (Oct 11, 3:40 PM)
Average82 °F79%29.82 "Hg
* Reported Oct 10 6:40 AM — Oct 25 5:40 AM, Tiruvarur, Weather by CustomWeather, © 2014

Note: Actual official high and low records may vary slightly from our data, if they occured in-between our weather recording intervals... More about our weather records

Advertising

Tiruvarur weather history for previous 24 hours

 ConditionsComfort  
Time TempWeatherWind HumidityBarometerVisibility
5:40 AM
Oct 25
79 °FPassing clouds.No wind94%29.83 "Hg2 mi
5:10 AM77 °FPassing clouds.No wind94%29.83 "Hg2 mi
4:40 AM77 °FPassing clouds.No wind94%29.83 "Hg2 mi
4:10 AM77 °FPassing clouds.No wind94%29.83 "Hg2 mi
3:40 AM79 °FPassing clouds.2 mph94%29.83 "Hg2 mi
3:10 AM79 °FPassing clouds.No wind94%29.83 "Hg2 mi
2:40 AM79 °FPassing clouds.No wind94%29.83 "Hg2 mi
2:10 AM81 °FPassing clouds.3 mph89%29.83 "Hg2 mi
1:40 AM81 °FPassing clouds.5 mph89%29.83 "Hg2 mi
1:10 AM81 °FPassing clouds.2 mph89%29.86 "Hg2 mi
12:40 AM81 °FPassing clouds.5 mph89%29.86 "Hg2 mi
12:10 AM81 °FPassing clouds.2 mph89%29.86 "Hg3 mi
11:40 PM
Oct 24
81 °FPassing clouds.3 mph89%29.89 "Hg3 mi
11:10 PM81 °FPassing clouds.3 mph84%29.89 "Hg3 mi
10:40 PM81 °FPassing clouds.5 mph89%29.89 "Hg3 mi
10:10 PM81 °FPassing clouds.5 mph89%29.89 "Hg3 mi
9:40 PM81 °FPassing clouds.6 mph84%29.89 "Hg3 mi
9:10 PM81 °FPassing clouds.6 mph84%29.89 "Hg3 mi
8:40 PM82 °FPassing clouds.5 mph79%29.86 "Hg3 mi
8:10 PM82 °FPassing clouds.5 mph79%29.86 "Hg3 mi
7:40 PM82 °FPassing clouds.7 mph79%29.83 "Hg3 mi
7:10 PM82 °FPassing clouds.7 mph79%29.80 "Hg3 mi
6:40 PM84 °FPassing clouds.6 mph74%29.80 "Hg3 mi
5:40 PM86 °FPassing clouds.6 mph70%29.77 "Hg4 mi
5:10 PM90 °FScattered clouds.6 mph63%29.77 "Hg4 mi
4:40 PM90 °FScattered clouds.6 mph63%29.77 "Hg4 mi
4:10 PM90 °FScattered clouds.5 mph63%29.77 "Hg4 mi
3:40 PM88 °FScattered clouds.3 mph66%29.77 "Hg4 mi
3:10 PM88 °FScattered clouds.3 mph66%29.80 "Hg4 mi
2:40 PM88 °FScattered clouds.3 mph66%29.80 "Hg4 mi
2:10 PM88 °FScattered clouds.3 mph66%29.80 "Hg4 mi
1:40 PM88 °FBroken clouds.3 mph66%29.83 "Hg4 mi
1:10 PM86 °FBroken clouds.6 mph66%29.83 "Hg4 mi
12:40 PM86 °FBroken clouds.3 mph66%29.86 "Hg4 mi
11:40 AM84 °FBroken clouds.3 mph74%29.89 "Hg2 mi
11:10 AM84 °FBroken clouds.5 mph74%29.89 "Hg2 mi
10:40 AM82 °FBroken clouds.6 mph79%29.89 "Hg2 mi
10:10 AM82 °FBroken clouds.7 mph79%29.92 "Hg2 mi
9:40 AM82 °FScattered clouds.7 mph79%29.92 "Hg2 mi
9:10 AM81 °FScattered clouds.3 mph79%29.92 "Hg2 mi
8:10 AM77 °FScattered clouds.5 mph89%29.92 "Hg1 mi
7:40 AM77 °FFog.5 mph89%29.89 "Hg1 mi
7:10 AM75 °FFog.2 mph94%29.89 "Hg1 mi
6:40 AM75 °FFog.No wind94%29.89 "Hg1 mi
6:10 AM75 °FFog.No wind94%29.86 "Hg1 mi
Weather by CustomWeather, © 2014

See weather overviewHow to use our weather pages